Tracking 30970 objects as of 3-Jul-2025
HD Live streaming from Space Station
objects crossing your sky now

ATLAS 5 CENTAUR DEB

Track ATLAS 5 CENTAUR DEB now!


NORAD ID: 44896
Int'l Code: 2018-079BP
Perigee: 7,909.1 km
Apogee: 32,438.4 km
Inclination: 13.3 °
Period: 717.3 minutes
Semi major axis: 26544 km
RCS: Unknown
Launch date: October 17, 2018
Source: United States (US)
Launch site: AIR FORCE EASTERN TEST RANGE (AFETR)

Note: This is SATELLITE DEBRIS
Your satellite tracking list
Your tracking list is empty




NASA's NSSDC Master Catalog

Two Line Element Set (TLE):
1 44896U 18079BK  25183.05348810 -.00000096  00000-0  00000+0 0  9999
2 44896  13.2851  20.5827 4620372 350.0536   3.2619  2.00740719 40660
Source of the keplerian elements: AFSPC